Location: *
(49.1466°N, 1.6216°E)
Time: 02:31:13
(UTC+00:00)

Cosmos 2333 Rocket - Pass Details

Date: 25 September 2023
Orbit: 837 x 864 km, 70.8° (Epoch: 01 December)

Event Time Altitude Azimuth Distance (km) Brightness Sun altitude
Rises 19:23:14 0° 218° (SW) 3,378 5.6 -16.5°
Reaches altitude 10° 19:25:42 10° 221° (SW) 2,449 4.9 -16.9°
Maximum altitude 19:31:16 62° 302° (WNW) 943 2.7 -17.8°
Drops below altitude 10° 19:36:54 10° 24° (NNE) 2,475 4.6 -18.6°
Sets 19:39:24 0° 28° (NNE) 3,418 5.3 -19.0°
